Wind_Speed
28 28 29 29 29 28 28 28 27 26 26 26 26 25 25 24 23 21 20 19 19 17 17 17 17 17 16 16 17 17 17 17 16 16 16 16 16 16 15 15 14 14 14
33 33 34 34 34 33 33 32 31 31 30 29 29 29 28 27 27 26 24 23 22 21 21 20 19 19 19 19 19 19 19 19 19 19 19 18 18 18 18 17 17 16 16
37 38 39 39 39 38 38 37 36 35 34 33 32 32 31 31 31 30 29 27 26 25 24 24 23 22 22 21 21 21 21 21 21 22 21 21 21 21 21 20 19 18 17
41 41 42 42 43 42 42 41 40 39 38 37 36 35 34 34 33 33 32 31 30 29 28 27 26 25 25 24 24 23 23 23 23 24 24 24 23 23 23 23 22 21 20
43 44 44 45 46 45 44 45 44 42 40 40 39 38 37 36 35 35 35 34 33 33 32 30 29 28 28 27 27 26 26 25 25 25 26 26 26 26 25 25 25 24 23
45 45 47 48 49 48 47 45 44 43 43 42 41 39 38 37 36 36 36 36 36 36 35 34 32 30 30 29 29 29 28 27 27 27 27 27 28 28 28 27 27 27 26
47 46 48 49 50 50 48 45 44 44 45 44 42 41 40 39 38 37 37 37 37 37 37 36 34 32 32 31 31 30 30 30 29 29 29 29 29 29 30 30 29 29 29
47 48 48 49 50 49 48 46 45 46 45 43 42 41 41 39 39 38 38 38 38 37 36 36 36 34 33 31 31 32 32 32 31 31 31 31 31 31 31 31 31 31 31
49 49 49 49 49 48 46 45 44 44 44 44 44 43 41 39 38 37 38 38 37 36 35 35 34 33 32 31 29 30 32 32 32 32 33 33 33 33 33 32 31 32 32
50 50 47 48 48 46 45 44 44 43 42 42 41 41 40 38 37 35 36 37 36 35 34 34 33 32 30 29 28 28 29 31 32 33 34 34 34 34 34 33 33 32 32
51 50 48 48 48 47 46 44 44 42 41 39 39 40 40 38 37 35 34 34 35 34 33 33 31 30 28 27 26 26 26 28 30 32 34 34 35 36 35 35 34 34 34
52 52 51 51 49 48 46 44 42 40 39 37 37 38 38 37 37 36 34 33 32 33 32 31 29 28 27 26 25 25 26 28 29 31 33 34 35 36 37 37 36 36 36
53 53 52 52 50 48 46 44 41 39 38 36 35 35 35 35 35 35 34 31 30 30 30 29 28 27 27 26 26 26 27 29 30 32 34 35 36 37 38 39 40 39 38
53 53 53 52 51 49 46 44 42 39 38 36 35 34 34 33 33 32 31 29 28 29 29 28 28 28 28 28 28 28 29 30 31 33 34 36 37 38 39 39 40 40 39
53 52 52 50 49 48 45 44 42 39 37 36 34 33 32 31 30 29 29 29 28 28 28 28 29 29 30 30 31 31 31 32 32 33 34 35 36 37 38 39 40 40 39
50 49 47 47 46 45 43 42 41 39 36 35 34 32 30 29 28 28 28 28 28 28 28 29 30 30 31 32 33 33 33 33 34 34 34 35 36 37 38 40 41 41 41
45 44 43 42 41 40 40 39 37 36 34 32 30 29 28 28 28 28 28 27 28 28 29 31 32 32 33 34 34 35 35 35 35 35 35 35 36 37 38 39 40 41 41
39 38 38 37 37 37 37 36 35 34 32 30 28 28 27 27 27 27 28 28 29 29 30 31 33 33 34 35 36 36 37 37 36 36 36 36 35 36 37 39 39 40 40
31 32 31 32 32 32 33 33 33 32 30 28 27 27 26 26 27 27 28 28 29 30 31 32 33 34 35 35 36 36 37 37 36 36 36 35 35 35 35 36 37 38 39
26 27 29 29 30 29 30 31 30 29 26 25 24 24 25 25 25 26 26 27 28 29 30 32 33 34 35 35 35 36 36 36 36 36 35 36 35 34 34 35 35 36 37
21 21 22 24 26 26 26 26 25 23 21 21 22 22 22 22 22 23 24 25 27 28 29 30 32 33 34 34 35 35 35 35 36 36 35 34 34 34 34 33 32 32 33
17 16 16 18 19 19 20 20 19 18 18 18 19 19 19 19 20 21 22 23 24 25 26 28 29 30 31 32 33 34 34 34 34 34 34 33 32 32 32 31 30 30 30
13 11 11 12 14 14 15 16 16 16 16 16 16 16 17 17 18 18 19 19 20 22 24 25 27 28 29 31 32 32 33 33 32 32 31 31 31 31 30 29 29 28 28
10 9 9 10 11 12 13 14 14 14 13 13 13 14 14 13 14 14 16 17 19 21 23 25 27 29 31 32 33 33 33 33 32 31 30 30 29 29 28 27 26 25 25
9 8 8 8 8 9 10 10 10 11 11 11 10 10 10 11 11 13 14 16 18 21 23 26 28 29 30 31 32 33 33 32 32 31 30 30 29 28 27 26 25 24 23
9 8 8 8 8 8 8 9 9 9 8 8 7 8 8 10 11 12 14 16 19 22 23 25 26 27 28 29 30 30 31 30 30 29 29 29 29 28 27 26 25 24 23
Wind_Direction
291 291 291 291 291 289 288 288 287 285 283 282 280 279 279 281 283 285 288 290 294 297 299 299 300 297 292 289 287 285 282 280 280 281 282 283 284 285 286 285 284 282 279
292 292 292 292 291 290 288 287 285 284 283 281 279 277 276 277 279 281 282 284 287 290 293 294 294 294 293 289 286 284 281 279 278 277 278 279 280 280 280 281 281 282 280
291 292 292 292 292 292 290 288 285 284 282 280 278 276 276 275 277 278 279 281 282 284 287 289 291 291 291 289 286 284 282 279 276 275 275 275 277 278 277 277 278 279 280
290 290 290 291 290 290 289 288 287 286 285 281 277 275 275 275 275 277 277 279 281 283 284 285 287 287 287 286 285 282 280 278 275 273 272 272 274 276 275 274 274 276 276
287 287 287 288 287 288 288 287 286 284 284 282 279 276 274 274 275 275 276 278 279 282 284 284 285 285 284 284 283 281 279 277 275 273 271 271 271 272 273 272 272 272 272
285 286 285 286 286 286 287 286 286 285 284 282 279 278 277 275 275 273 275 278 280 283 284 284 284 283 283 282 280 278 276 275 273 272 270 270 270 269 270 270 270 270 269
284 285 284 285 285 284 285 287 287 288 286 283 281 280 278 275 274 273 274 277 280 283 285 286 286 285 283 281 279 277 274 272 271 270 270 269 269 269 268 268 270 269 267
283 283 284 284 287 286 285 287 288 288 286 282 280 280 278 275 275 275 275 275 277 280 282 284 286 287 285 282 279 275 274 272 270 269 269 269 268 268 268 267 268 268 265
281 283 283 284 286 286 287 287 288 289 286 282 277 277 276 274 274 274 275 276 277 279 282 285 286 287 286 285 281 277 273 271 269 268 267 267 267 266 266 265 266 267 266
279 280 281 283 285 286 287 286 286 289 286 282 276 274 273 271 272 271 271 274 277 280 282 284 286 286 285 283 282 279 276 273 271 269 268 267 266 265 265 263 263 264 265
279 280 282 283 283 284 286 286 285 286 286 280 274 272 269 267 269 270 269 271 277 280 282 283 283 284 283 282 283 283 279 275 274 271 269 268 267 265 265 263 262 263 263
278 279 280 281 282 282 283 283 284 285 284 280 275 271 266 265 267 270 270 271 274 277 279 280 281 282 283 282 284 282 280 279 276 275 272 270 269 267 266 263 262 262 262
277 277 277 277 278 278 278 279 280 280 278 277 275 269 265 264 266 269 271 271 272 273 275 277 279 281 283 283 284 282 282 281 280 278 276 273 271 269 267 264 262 261 262
277 276 275 274 274 274 274 275 275 275 274 274 271 265 262 262 264 267 269 270 271 272 273 276 278 281 283 285 286 286 285 284 282 281 278 275 273 270 268 266 263 262 260
278 277 275 272 271 270 270 270 271 271 271 269 266 263 262 261 263 266 269 271 271 272 274 277 280 282 285 286 287 288 288 287 286 284 281 278 276 272 268 265 263 262 261
278 276 273 271 268 266 265 265 266 266 267 265 262 260 259 261 264 266 269 271 272 273 276 278 281 283 285 285 286 288 289 288 288 287 284 280 277 274 269 266 264 262 260
277 274 273 269 265 263 261 261 262 262 260 259 257 258 259 261 263 266 268 271 273 275 277 279 281 283 284 285 286 286 287 288 287 287 286 283 279 275 272 269 266 262 259
275 272 270 266 262 259 258 258 256 255 254 255 256 258 260 262 264 267 270 272 275 277 279 281 283 284 285 285 285 286 286 286 286 286 285 283 281 277 274 269 266 262 259
277 272 266 263 258 255 255 254 251 252 251 251 255 256 258 262 266 269 272 274 276 278 281 282 284 285 285 286 286 285 285 285 285 284 284 284 281 277 274 270 267 262 258
280 276 268 261 257 254 252 249 247 245 244 247 251 255 259 263 267 270 274 277 279 281 283 284 285 286 286 287 286 286 285 284 283 283 284 284 283 280 276 273 267 263 258
283 278 268 259 253 251 245 240 237 237 239 244 249 254 258 263 268 272 276 280 282 284 285 287 288 289 288 288 287 286 285 284 283 282 282 282 281 280 277 275 269 265 259
286 280 268 255 250 247 240 235 237 237 239 242 248 254 260 266 271 275 280 284 287 289 291 293 293 292 292 291 290 289 287 285 284 282 281 280 280 279 277 275 270 265 260
285 274 267 256 252 244 241 237 234 237 239 244 251 257 263 268 273 279 285 289 294 297 298 299 299 299 297 295 293 291 289 286 284 282 281 280 279 279 278 276 272 267 260
284 279 268 256 247 241 240 238 238 237 240 246 253 259 266 272 277 285 291 297 301 303 304 304 303 302 300 298 296 293 291 288 285 281 279 278 277 279 278 278 277 267 259
275 267 254 247 244 241 238 237 236 239 243 249 254 262 272 281 289 295 300 304 306 307 307 307 306 305 303 301 299 297 294 290 287 283 279 276 274 275 275 275 276 272 264
264 260 259 254 244 237 237 238 239 242 245 249 258 271 282 291 297 302 306 309 311 312 312 312 312 311 309 307 304 301 297 293 289 285 280 276 273 270 271 272 272 269 266
Height
5903 5902 5901 5900 5899 5898 5897 5896 5895 5895 5894 5893 5893 5892 5892 5891 5890 5890 5889 5889 5887 5886 5885 5884 5883 5882 5881 5881 5881 5881 5881 5881 5881 5880 5880 5880 5880 5880 5880 5880 5879 5879 5879
5898 5897 5896 5895 5893 5893 5892 5891 5890 5889 5888 5887 5887 5887 5886 5885 5885 5884 5884 5884 5883 5882 5882 5881 5880 5878 5877 5877 5876 5876 5876 5876 5876 5876 5876 5876 5876 5876 5876 5876 5876 5876 5876
5892 5891 5890 5889 5888 5886 5885 5884 5883 5882 5882 5881 5880 5880 5880 5879 5879 5878 5878 5878 5878 5878 5877 5876 5875 5874 5873 5872 5871 5871 5871 5871 5871 5871 5871 5871 5871 5872 5872 5872 5872 5872 5872
5885 5884 5883 5882 5880 5879 5878 5877 5876 5875 5874 5873 5872 5872 5872 5872 5872 5871 5871 5871 5871 5871 5871 5871 5870 5869 5868 5867 5866 5865 5865 5865 5865 5865 5865 5866 5866 5866 5867 5867 5867 5867 5868
5877 5876 5875 5873 5872 5871 5870 5868 5867 5866 5865 5864 5863 5863 5864 5864 5864 5864 5864 5864 5864 5863 5863 5864 5863 5862 5861 5860 5859 5859 5859 5858 5858 5859 5859 5860 5860 5860 5861 5861 5862 5862 5862
5869 5868 5866 5865 5863 5862 5861 5859 5859 5857 5856 5854 5854 5854 5855 5855 5855 5855 5856 5856 5856 5855 5855 5855 5855 5855 5854 5853 5852 5852 5852 5851 5851 5851 5852 5853 5853 5854 5854 5855 5855 5856 5857
5859 5858 5857 5855 5854 5852 5851 5851 5850 5848 5847 5845 5845 5845 5846 5847 5847 5847 5847 5848 5848 5847 5846 5846 5846 5846 5846 5845 5844 5843 5843 5844 5844 5844 5844 5845 5846 5846 5847 5848 5848 5849 5850
5849 5848 5847 5845 5844 5842 5841 5841 5840 5839 5837 5836 5835 5835 5836 5838 5837 5838 5839 5839 5839 5839 5838 5837 5837 5836 5836 5836 5836 5835 5834 5835 5836 5836 5836 5837 5838 5839 5839 5840 5841 5842 5843
5839 5838 5837 5835 5834 5833 5833 5832 5830 5828 5827 5826 5825 5825 5826 5828 5829 5830 5829 5829 5830 5830 5830 5829 5828 5828 5826 5826 5826 5826 5825 5826 5826 5827 5828 5828 5829 5830 5831 5832 5833 5834 5835
5828 5827 5826 5825 5824 5824 5823 5822 5821 5819 5818 5817 5816 5816 5817 5817 5819 5821 5822 5820 5821 5822 5821 5820 5819 5819 5818 5817 5817 5817 5816 5816 5817 5818 5819 5819 5820 5821 5823 5824 5825 5826 5827
5817 5816 5816 5815 5815 5814 5813 5812 5810 5809 5808 5807 5807 5807 5807 5808 5809 5811 5814 5814 5813 5813 5812 5812 5811 5811 5810 5809 5808 5809 5807 5806 5807 5808 5809 5810 5811 5812 5814 5815 5816 5817 5819
5806 5806 5805 5804 5804 5803 5803 5802 5801 5800 5799 5798 5797 5797 5798 5799 5800 5801 5804 5805 5805 5804 5804 5803 5803 5802 5802 5801 5801 5801 5799 5799 5800 5800 5801 5801 5802 5803 5804 5805 5807 5808 5810
5794 5794 5793 5793 5792 5792 5792 5792 5792 5791 5790 5789 5788 5788 5789 5790 5791 5793 5794 5796 5796 5796 5796 5795 5795 5794 5794 5793 5793 5793 5792 5792 5792 5792 5792 5792 5792 5793 5794 5795 5797 5799 5800
5780 5780 5780 5780 5780 5781 5781 5781 5781 5781 5781 5780 5780 5780 5780 5782 5783 5784 5786 5787 5788 5788 5788 5788 5787 5786 5786 5785 5785 5785 5784 5784 5783 5783 5783 5783 5783 5783 5784 5785 5786 5788 5789
5766 5765 5765 5766 5766 5768 5769 5770 5771 5771 5771 5771 5772 5772 5773 5774 5775 5776 5777 5778 5780 5780 5780 5780 5779 5778 5778 5777 5776 5776 5775 5775 5774 5774 5773 5773 5773 5773 5774 5775 5776 5777 5778
5752 5751 5750 5751 5753 5755 5757 5758 5760 5761 5762 5763 5763 5764 5765 5766 5768 5769 5770 5771 5771 5772 5772 5771 5771 5770 5769 5769 5768 5767 5766 5765 5764 5764 5763 5763 5762 5762 5763 5764 5765 5766 5767
5739 5739 5738 5739 5741 5742 5745 5747 5750 5751 5753 5754 5755 5757 5758 5759 5761 5762 5763 5764 5764 5764 5764 5764 5763 5762 5761 5760 5759 5758 5757 5756 5755 5754 5753 5752 5752 5752 5752 5752 5753 5754 5756
5727 5727 5728 5728 5730 5732 5735 5738 5740 5742 5744 5746 5747 5749 5751 5752 5753 5755 5756 5756 5757 5756 5756 5755 5754 5754 5753 5751 5750 5749 5748 5747 5746 5744 5743 5742 5741 5741 5741 5741 5741 5743 5744
5719 5718 5718 5719 5721 5724 5726 5729 5731 5734 5736 5738 5740 5742 5744 5746 5747 5748 5749 5749 5748 5748 5747 5747 5746 5745 5743 5742 5741 5739 5738 5737 5736 5734 5734 5732 5731 5730 5730 5730 5730 5731 5732
5712 5711 5710 5712 5714 5717 5719 5721 5724 5726 5728 5731 5733 5735 5737 5739 5740 5741 5741 5741 5740 5740 5739 5738 5737 5736 5734 5732 5731 5730 5728 5727 5725 5724 5723 5722 5721 5720 5719 5719 5719 5720 5721
5705 5705 5704 5706 5708 5710 5712 5715 5717 5719 5722 5725 5727 5729 5731 5732 5733 5734 5734 5733 5733 5732 5731 5730 5728 5727 5725 5723 5722 5720 5718 5717 5716 5715 5714 5712 5711 5710 5710 5709 5708 5709 5710
5702 5701 5701 5702 5703 5706 5708 5710 5712 5714 5717 5719 5722 5724 5725 5726 5727 5727 5727 5726 5726 5725 5723 5722 5720 5718 5716 5714 5712 5710 5709 5708 5706 5705 5704 5703 5702 5701 5700 5700 5699 5699 5701
5699 5698 5698 5699 5700 5702 5704 5706 5708 5711 5713 5715 5717 5718 5719 5720 5721 5721 5721 5720 5719 5718 5717 5715 5713 5710 5708 5706 5703 5701 5699 5698 5696 5695 5694 5693 5692 5692 5691 5690 5690 5691 5692
5696 5696 5696 5696 5698 5699 5701 5702 5704 5707 5709 5710 5712 5713 5714 5715 5715 5716 5715 5714 5713 5712 5710 5708 5706 5703 5700 5698 5695 5693 5690 5688 5686 5685 5685 5684 5683 5683 5683 5682 5682 5682 5683
5694 5694 5694 5694 5695 5696 5698 5700 5701 5704 5705 5707 5708 5709 5710 5711 5711 5711 5710 5709 5708 5707 5705 5702 5699 5696 5693 5689 5686 5683 5681 5679 5677 5676 5675 5675 5674 5674 5674 5674 5675 5675 5676
5692 5692 5692 5692 5693 5694 5696 5697 5699 5701 5702 5703 5704 5705 5706 5707 5707 5706 5706 5705 5703 5701 5699 5696 5693 5689 5685 5682 5678 5675 5672 5669 5667 5666 5665 5665 5665 5666 5666 5666 5667 5668 5669